Hourly Data Report for December 20, 2018

EUREKA CLIMATE
NUNAVUT
Current Station Operator: ECCC - MSC

79°59'21.000" N
85°56'02.000" W
10.00 m
2401199
71613
NEK

Download Data

Hourly Data (December 2018)
Hourly Data Report for December 20, 2018
TIME
LST
Temp Definition
°C
Dew Point Definition
°C
Rel Hum Definition
%
Precip. Amount Definition
mm

Wind Dir Definition
10's deg

Wind Spd Definition
km/h
Visibility Definition
km
Stn Press Definition
kPa
Hmdx Definition


Wind Chill Definition


Weather Definition


00:00 -38.5 -42.4 67 0.0 11 10   101.51   -49 LegendNANA
01:00 -37.3 -41.0 68 0.0 3 14   101.51   -50 LegendNANA
02:00 -37.1 -40.9 68 0.0 10 11   101.54   -48 LegendNANA
03:00 -37.2 -41.0 68 0.0 4 9   101.58   -47 LegendNANA
04:00 -38.0 -41.9 67 0.0 10 4   101.57   -43 LegendNANA
05:00 -37.6 -41.4 68 0.0 4 6   101.59   -45 LegendNANA
06:00 -38.0 -41.9 67 0.0 11 4   101.61   -43 LegendNANA
07:00 -38.1 -41.9 67 0.0 12 7   101.61   -47 LegendNANA
08:00 -37.9 -41.7 67 0.0 12 4   101.63   -43 LegendNANA
09:00 -38.4 -42.2 67 0.0 11 7   101.65   -47 LegendNANA
10:00 -37.7 -41.5 68 0.0 9 3   101.67   -42 LegendNANA
11:00 -37.8 -41.5 68 0.0 6 2   101.67   -40 LegendNANA
12:00 -39.0 -42.9 66 0.0 12 5   101.70   -46 LegendNANA
13:00 -38.8 -42.7 66 0.0 11 7   101.73   -48 LegendNANA
14:00 -39.0 -43.0 66 0.0 11 2   101.78   -42 LegendNANA
15:00 -39.3 -43.3 66 0.0 11 7   101.81   -48 LegendNANA
16:00 -39.6 -43.6 66 0.0 12 5   101.85   -47 LegendNANA
17:00 -39.4 -43.3 66 0.0 10 3   101.87   -44 LegendNANA
18:00 -39.2 -43.2 66 0.0 11 5   101.90   -46 LegendNANA
19:00 -40.0 -44.1 65 0.0 11 5   101.94   -47 LegendNANA
20:00 -39.6 -43.7 66 0.0 12 3   101.97   -44 LegendNANA
21:00 -39.0 -43.0 66 0.0 7 2   102.00   -42 LegendNANA
22:00 -39.6 -43.6 66 0.0 11 7   102.04   -48 LegendNANA
23:00 -39.5 -43.5 66 0.0 11 7   102.08   -48 LegendNANA

Notes on Data Quality.

Legend

  • E = Estimated
  • M = Missing
  • NA = Not Available*
  • [empty] = Indicates an unobserved value
Date modified: